Hourly Data Report for October 13, 2017

All times are specified in Local Standard Time (LST). Add 1 hour to adjust for Daylight Saving Time where and when it is observed.

KITCHENER/WATERLOO
ONTARIO

43°27'39.000" N
80°22'43.000" W
321.60 m
6144239
71368
YKF

Download Data

Hourly Data (October 2017)
Hourly Data Report for October 13, 2017
Temp Definition
°C
Dew Point Temp Definition
°C
Rel Hum Definition
%
Wind Dir Definition
10's deg

Wind Spd Definition
km/h
Visibility Definition
km
Stn Press Definition
kPa
Hmdx Definition


Wind Chill Definition


Weather Definition


TIME
00:00 Legend Double Dagger 13.7 13.1 96 12 13 14.5 98.49     LegendNANA
01:00 Legend Double Dagger 13.7 13.1 96 12 11 16.1 98.48     LegendNANA
02:00 Legend Double Dagger 13.8 12.9 94 13 13 16.1 98.46     LegendNANA
03:00 Legend Double Dagger 13.7 12.6 93 13 11 16.1 98.47     LegendNANA
04:00 Legend Double Dagger 13.4 12.8 96 13 11 16.1 98.48     Rain
05:00 Legend Double Dagger 13.3 12.8 97 12 9 16.1 98.46     LegendNANA
06:00 Legend Double Dagger 13.5 12.9 96 14 11 16.1 98.45     LegendNANA
07:00 Legend Double Dagger 13.4 12.9 97 15 11 12.9 98.44     LegendNANA
08:00 Legend Double Dagger 13.7 13.4 98 16 13 4.8 98.46     Rain,Fog
09:00 Legend Double Dagger 14.5 13.9 96 17 11 11.3 98.47     LegendNANA
10:00 Legend Double Dagger 15.2 14.4 95 20 13 16.1 98.47     LegendNANA
11:00 Legend Double Dagger 16.6 14.9 90 19 15 16.1 98.42     LegendNANA
12:00 Legend Double Dagger 17.6 14.5 82 19 15 16.1 98.38     LegendNANA
13:00 Legend Double Dagger 17.7 14.0 79 20 13 16.1 98.33     LegendNANA
14:00 Legend Double Dagger 17.3 13.8 80 LegendMM 11 16.1 98.29     LegendNANA
15:00 Legend Double Dagger 15.5 14.2 92 26 17 16.1 98.31     Rain
16:00 Legend Double Dagger 16.4 14.6 89 23 5 16.1 98.27     LegendNANA
17:00 Legend Double Dagger 16.5 14.7 89 24 4 16.1 98.30     LegendNANA
18:00 Legend Double Dagger 15.0 14.4 96 16 4 16.1 98.32     LegendNANA
19:00 Legend Double Dagger 13.2 12.9 98   0 12.9 98.32     LegendNANA
20:00 Legend Double Dagger 12.3 12.2 99   0 0.2 98.31     Rain,Fog
21:00 Legend Double Dagger 10.7 10.6 99   0 0.2 98.36     Rain,Fog
22:00 Legend Double Dagger 10.0 10.0 100   0 0.4 98.37     Fog
23:00 Legend Double Dagger 9.1 9.1 100 12 4 0.2 98.31     Rain,Fog

Notes on Data Quality.

Legend

  • E = Estimated
  • M = Missing
  • NA = Not Available
  • ‡ = Partner data that is not subject to review by the National Climate Archives
Date modified: